sat.trackr.live / text

‹ back to catalog

STARLINK-36773

NORAD 67801 · 2026-032E

PAYLOAD ACTIVE UNKNOWN

§ Identity

Operator
Country
US
Launch date
2026-02-15
Launch site
AFWTR
Launch vehicle
Mass (kg)
RCS (m²)

Purposes: comms

External: N2YO · Heavens-Above · Gunter

§ Orbital elements

Epoch: 2026-05-25T01:55:49.737792Z

Period
93.91 min
Inclination
97.2862°
Eccentricity
0.0001810
Mean motion
15.33457494 rev/d
Perigee alt
464.3 km
Apogee alt
466.7 km
Semi-major
6,843.6 km
B*
4.0719e-4
RAAN
333.1114°
Arg perigee
85.9633°
Mean anomaly
274.1816°
Rev number
1,666

§ Raw data

STARLINK-367731 67801U 26032E   26145.08043678  .00013099  00000+0  40719-3 0  99942 67801  97.2862 333.1114 0001810  85.9633 274.1816 15.33457494 16661

JSON: /api/v1/satellites/67801 · /tle

For live sub-satellite position, see the globe view (requires WebGL).

§ Visibility from observer

Set your observer location to see the next 7 days of passes ≥ 10°. The values pass through the URL so the page stays shareable.

No JS? Fill the form by hand. The geolocation button needs JavaScript.